Powrót do katalogu

STARLINK-11743

AktywnyŁącznośćVLEO
NORAD 64379·PAYLOAD·🇺🇸 United States

Wystrzelony Jun 13, 2025 z Cape Canaveral Space Force Station

Loading…

Następne Przeloty (najbliższe 24 godziny)

TLE

ŚwieżeSource: CelesTrak SupGP

Epoka: Sep 14, 2026, 23:06 UTC

1 64379C 25127K   26257.96298611  .00003582  00000+0  27799-4 0  2572
2 64379  43.0010  24.0145 0001757 270.6251 180.4691 15.70853630    16

Śledź STARLINK-11743 w czasie rzeczywistym z AllMySat

Download on the App Store